Location: Wien
(48.2082°N, 16.3738°E)
Time: 21:06:54
(UTC+01:00)

EO-79 - Visible Passes

Search period start: 22 March 2019 00:00
Search period end: 01 April 2019 01:00
Orbit: 593 x 610 km, 97.9° (Epoch: 21 March)

Date Brightness Start Highest point End Pass type
(mag) Time Alt. Az. Time Alt. Az. Time Alt. Az.
26 Mar ? 00:27:14 10° NNE 00:27:21 11° NNE 00:27:21 11° NNE visible
27 Mar ? 00:38:46 10° N 00:39:06 12° N 00:39:06 12° N visible
28 Mar ? 00:50:19 10° N 00:50:51 13° N 00:50:51 13° N visible
29 Mar ? 01:01:54 10° N 01:02:35 14° N 01:02:35 14° N visible
30 Mar ? 01:13:32 10° N 01:14:20 15° N 01:14:20 15° N visible
31 Mar ? 01:25:13 10° N 01:26:05 15° NNW 01:26:05 15° NNW visible
